Location: Unspecified
(0.0000°N, 0.0000°E)
Time: 20:18:15
(UTC+01:00)

Hubble Space Telescope - Visible Passes

Search period start: 28 November 2014 00:00
Search period end: 08 December 2014 00:00
Orbit: 546 x 549 km, 28.5° (Epoch: 27 November)

Date Brightness Start Highest point End Pass type
(mag) Time Alt. Az. Time Alt. Az. Time Alt. Az.
29 Nov 3.1 20:19:56 10° S 20:21:51 13° SSE 20:22:07 13° SSE visible
30 Nov 2.7 20:11:28 10° SSW 20:14:22 18° SSE 20:15:02 18° SE visible
01 Dec 2.2 20:03:21 10° SSW 20:06:51 26° SSE 20:07:58 23° SE visible
02 Dec 1.7 19:55:25 10° SW 19:59:18 37° SSE 20:00:56 26° ESE visible
03 Dec 1.1 19:47:38 10° SW 19:51:44 56° SSE 19:53:56 25° E visible
04 Dec 3.2 06:04:41 10° N 06:06:27 12° NNE 06:08:13 10° NE visible
04 Dec 0.7 19:39:58 10° WSW 19:44:09 86° SSE 19:46:55 20° ENE visible
05 Dec 2.9 05:56:06 10° NNW 05:58:56 18° NNE 06:01:45 10° ENE visible
05 Dec 1.1 19:32:26 10° WSW 19:36:33 62° NNW 19:39:55 15° NE visible
06 Dec 2.5 05:48:39 14° NNW 05:51:22 25° NNE 05:54:50 10° E visible
06 Dec 1.7 19:25:02 10° W 19:28:58 40° NNW 19:32:53 10° NE visible
07 Dec 1.9 05:41:38 21° NNW 05:43:47 36° NNE 05:47:39 10° E visible
07 Dec 2.3 19:17:47 10° W 19:21:22 27° NNW 19:24:56 10° NNE visible
